Time,TemperatureF,DewpointF,PressureIn,WindDirection,WindDirectionDegrees,WindSpeedMPH,WindSpeedGustMPH,Humidity,HourlyPrecipIn,Conditions,Clouds,dailyrainin,SoftwareType,DateUTC
2013-01-27 00:03:00,22.3,3.7,29.68,North,353,0.0,0.0,44,0.00,,---,0.00,VWS V13.00,2013-01-27 09:03:00,
2013-01-27 00:08:00,22.3,3.7,29.68,North,353,0.0,0.0,44,0.00,,---,0.00,VWS V13.00,2013-01-27 09:08:00,
2013-01-27 00:13:00,22.1,3.5,29.68,North,353,0.0,0.0,44,0.00,,---,0.00,VWS V13.00,2013-01-27 09:13:00,
2013-01-27 00:18:00,22.3,3.7,29.68,North,353,0.0,0.0,44,0.00,,---,0.00,VWS V13.00,2013-01-27 09:18:00,
2013-01-27 00:23:00,22.5,3.9,29.68,North,353,0.0,0.0,44,0.00,,---,0.00,VWS V13.00,2013-01-27 09:23:00,
2013-01-27 00:28:00,22.5,3.9,29.68,North,353,0.0,0.0,44,0.00,,---,0.00,VWS V13.00,2013-01-27 09:28:00,
2013-01-27 00:33:00,22.6,4.0,29.68,North,353,0.0,0.0,44,0.00,,---,0.00,VWS V13.00,2013-01-27 09:33:00,
2013-01-27 00:38:00,22.6,4.0,29.68,North,353,0.0,0.0,44,0.00,,---,0.00,VWS V13.00,2013-01-27 09:38:00,
2013-01-27 00:43:00,22.6,4.0,29.68,North,353,0.0,0.0,44,0.00,,---,0.00,VWS V13.00,2013-01-27 09:43:00,
2013-01-27 00:48:00,22.5,3.9,29.68,North,353,0.0,0.0,44,0.00,,---,0.00,VWS V13.00,2013-01-27 09:48:00,
2013-01-27 00:53:00,22.5,3.9,29.71,North,353,0.0,0.0,44,0.00,,---,0.00,VWS V13.00,2013-01-27 09:53:00,
2013-01-27 00:58:00,22.5,3.9,29.71,North,353,0.0,0.0,44,0.00,,---,0.00,VWS V13.00,2013-01-27 09:58:00,
2013-01-27 01:03:00,22.6,3.5,29.71,North,353,0.0,0.0,43,0.00,,---,0.00,VWS V13.00,2013-01-27 10:03:00,
2013-01-27 01:08:00,22.6,3.5,29.68,North,353,0.0,0.0,43,0.00,,---,0.00,VWS V13.00,2013-01-27 10:08:00,
2013-01-27 01:13:00,22.5,3.4,29.68,North,353,0.0,0.0,43,0.00,,---,0.00,VWS V13.00,2013-01-27 10:13:00,
2013-01-27 01:18:00,22.5,3.4,29.68,North,353,0.0,0.0,43,0.00,,---,0.00,VWS V13.00,2013-01-27 10:18:00,
2013-01-27 01:23:00,22.5,3.4,29.71,North,353,0.0,0.0,43,0.00,,---,0.00,VWS V13.00,2013-01-27 10:23:00,
2013-01-27 01:28:00,22.5,3.4,29.71,North,353,0.0,0.0,43,0.00,,---,0.00,VWS V13.00,2013-01-27 10:28:00,
2013-01-27 01:33:00,22.3,3.2,29.71,North,353,0.0,0.0,43,0.00,,---,0.00,VWS V13.00,2013-01-27 10:33:00,
2013-01-27 01:38:00,22.3,3.2,29.71,North,353,0.0,0.0,43,0.00,,---,0.00,VWS V13.00,2013-01-27 10:38:00,
2013-01-27 01:43:00,22.3,3.2,29.71,North,353,0.0,0.0,43,0.00,,---,0.00,VWS V13.00,2013-01-27 10:43:00,
2013-01-27 01:48:00,22.3,3.2,29.71,North,353,0.0,0.0,43,0.00,,---,0.00,VWS V13.00,2013-01-27 10:48:00,
2013-01-27 01:53:00,22.3,3.7,29.71,North,353,0.0,0.0,44,0.00,,---,0.00,VWS V13.00,2013-01-27 10:53:00,
2013-01-27 01:58:00,22.3,3.7,29.71,North,353,0.0,0.0,44,0.00,,---,0.00,VWS V13.00,2013-01-27 10:58:00,
2013-01-27 02:03:00,22.1,3.0,29.71,North,353,0.0,0.0,43,0.00,,---,0.00,VWS V13.00,2013-01-27 11:03:00,
2013-01-27 02:08:00,22.3,3.7,29.71,North,353,0.0,0.0,44,0.00,,---,0.00,VWS V13.00,2013-01-27 11:08:00,
2013-01-27 02:13:00,22.1,3.0,29.71,North,353,0.0,0.0,43,0.00,,---,0.00,VWS V13.00,2013-01-27 11:13:00,
2013-01-27 02:18:00,22.1,3.5,29.71,North,353,0.0,0.0,44,0.00,,---,0.00,VWS V13.00,2013-01-27 11:18:00,
2013-01-27 02:23:00,22.1,3.0,29.71,North,353,0.0,0.0,43,0.00,,---,0.00,VWS V13.00,2013-01-27 11:23:00,
2013-01-27 02:28:00,22.1,3.0,29.71,North,353,0.0,0.0,43,0.00,,---,0.00,VWS V13.00,2013-01-27 11:28:00,
2013-01-27 02:33:00,22.1,3.5,29.71,North,353,0.0,0.0,44,0.00,,---,0.00,VWS V13.00,2013-01-27 11:33:00,
2013-01-27 02:38:00,22.1,3.5,29.71,North,353,0.0,0.0,44,0.00,,---,0.00,VWS V13.00,2013-01-27 11:38:00,
2013-01-27 02:43:00,22.1,3.5,29.71,North,353,0.0,0.0,44,0.00,,---,0.00,VWS V13.00,2013-01-27 11:43:00,
2013-01-27 02:48:00,22.1,3.5,29.71,North,353,0.0,0.0,44,0.00,,---,0.00,VWS V13.00,2013-01-27 11:48:00,
2013-01-27 02:53:00,22.3,3.7,29.71,North,353,0.0,0.0,44,0.00,,---,0.00,VWS V13.00,2013-01-27 11:53:00,
2013-01-27 02:58:00,22.3,3.7,29.71,North,353,0.0,0.0,44,0.00,,---,0.00,VWS V13.00,2013-01-27 11:58:00,
2013-01-27 03:03:00,22.3,3.7,29.71,North,353,0.0,0.0,44,0.00,,---,0.00,VWS V13.00,2013-01-27 12:03:00,
2013-01-27 03:08:00,22.3,3.7,29.71,North,353,0.0,0.0,44,0.00,,---,0.00,VWS V13.00,2013-01-27 12:08:00,
2013-01-27 03:13:00,22.3,3.7,29.71,North,353,0.0,0.0,44,0.00,,---,0.00,VWS V13.00,2013-01-27 12:13:00,
2013-01-27 03:18:00,22.3,4.2,29.71,North,353,0.0,0.0,45,0.00,,---,0.00,VWS V13.00,2013-01-27 12:18:00,
2013-01-27 03:23:00,22.3,4.2,29.71,North,353,0.0,0.0,45,0.00,,---,0.00,VWS V13.00,2013-01-27 12:23:00,
2013-01-27 03:28:00,22.3,4.2,29.71,North,353,0.0,0.0,45,0.00,,---,0.00,VWS V13.00,2013-01-27 12:28:00,
2013-01-27 03:33:00,22.3,4.2,29.71,North,353,0.0,0.0,45,0.00,,---,0.00,VWS V13.00,2013-01-27 12:33:00,
2013-01-27 03:38:00,22.1,4.5,29.71,North,353,0.0,0.0,46,0.00,,---,0.00,VWS V13.00,2013-01-27 12:38:00,
2013-01-27 03:43:00,22.1,4.5,29.71,North,353,0.0,0.0,46,0.00,,---,0.00,VWS V13.00,2013-01-27 12:43:00,
2013-01-27 03:48:00,22.1,4.5,29.71,North,353,0.0,0.0,46,0.00,,---,0.00,VWS V13.00,2013-01-27 12:48:00,
2013-01-27 03:53:00,22.1,4.5,29.71,North,353,0.0,0.0,46,0.00,,---,0.00,VWS V13.00,2013-01-27 12:53:00,
2013-01-27 03:58:00,21.9,4.3,29.71,North,353,0.0,0.0,46,0.00,,---,0.00,VWS V13.00,2013-01-27 12:58:00,
2013-01-27 04:03:00,21.9,4.3,29.71,North,353,0.0,0.0,46,0.00,,---,0.00,VWS V13.00,2013-01-27 13:03:00,
2013-01-27 04:08:00,21.9,4.3,29.71,North,353,0.0,0.0,46,0.00,,---,0.00,VWS V13.00,2013-01-27 13:08:00,
2013-01-27 04:13:00,21.9,4.3,29.71,North,353,0.0,0.0,46,0.00,,---,0.00,VWS V13.00,2013-01-27 13:13:00,
2013-01-27 04:18:00,21.9,4.8,29.71,North,353,0.0,0.0,47,0.00,,---,0.00,VWS V13.00,2013-01-27 13:18:00,
2013-01-27 04:23:00,21.7,4.6,29.71,North,353,0.0,0.0,47,0.00,,---,0.00,VWS V13.00,2013-01-27 13:23:00,
2013-01-27 04:28:00,21.4,4.3,29.71,North,353,0.0,0.0,47,0.00,,---,0.00,VWS V13.00,2013-01-27 13:28:00,
2013-01-27 04:33:00,21.4,4.3,29.71,North,353,0.0,0.0,47,0.00,,---,0.00,VWS V13.00,2013-01-27 13:33:00,
2013-01-27 04:38:00,21.2,5.0,29.71,North,353,0.0,0.0,49,0.00,,---,0.00,VWS V13.00,2013-01-27 13:38:00,
2013-01-27 04:43:00,21.2,5.0,29.71,North,353,0.0,0.0,49,0.00,,---,0.00,VWS V13.00,2013-01-27 13:43:00,
2013-01-27 04:48:00,21.2,5.0,29.71,North,353,0.0,0.0,49,0.00,,---,0.00,VWS V13.00,2013-01-27 13:48:00,
2013-01-27 04:53:00,21.2,5.0,29.71,North,353,0.0,0.0,49,0.00,,---,0.00,VWS V13.00,2013-01-27 13:53:00,
2013-01-27 04:58:00,21.2,5.5,29.71,North,353,0.0,0.0,50,0.00,,---,0.00,VWS V13.00,2013-01-27 13:58:00,
2013-01-27 05:03:00,21.2,5.9,29.71,North,353,0.0,0.0,51,0.00,,---,0.00,VWS V13.00,2013-01-27 14:03:00,
2013-01-27 05:08:00,21.2,5.9,29.71,North,353,0.0,0.0,51,0.00,,---,0.00,VWS V13.00,2013-01-27 14:08:00,
2013-01-27 05:13:00,21.7,6.4,29.71,North,353,0.0,0.0,51,0.00,,---,0.00,VWS V13.00,2013-01-27 14:13:00,
2013-01-27 05:18:00,21.7,6.4,29.71,North,353,0.0,0.0,51,0.00,,---,0.00,VWS V13.00,2013-01-27 14:18:00,
2013-01-27 05:23:00,21.9,6.1,29.71,North,353,0.0,0.0,50,0.00,,---,0.00,VWS V13.00,2013-01-27 14:23:00,
2013-01-27 05:28:00,21.7,6.0,29.71,North,353,0.0,0.0,50,0.00,,---,0.00,VWS V13.00,2013-01-27 14:28:00,
2013-01-27 05:33:00,21.7,6.0,29.71,North,353,0.0,0.0,50,0.00,,---,0.00,VWS V13.00,2013-01-27 14:33:00,
2013-01-27 05:38:00,21.7,6.0,29.71,North,353,0.0,0.0,50,0.00,,---,0.00,VWS V13.00,2013-01-27 14:38:00,
2013-01-27 05:43:00,21.7,6.0,29.71,North,353,0.0,0.0,50,0.00,,---,0.00,VWS V13.00,2013-01-27 14:43:00,
2013-01-27 05:48:00,21.7,6.0,29.71,North,353,0.0,0.0,50,0.00,,---,0.00,VWS V13.00,2013-01-27 14:48:00,
2013-01-27 05:53:00,21.7,6.0,29.71,North,353,0.0,0.0,50,0.00,,---,0.00,VWS V13.00,2013-01-27 14:53:00,
2013-01-27 05:58:00,21.7,6.0,29.71,North,353,0.0,0.0,50,0.00,,---,0.00,VWS V13.00,2013-01-27 14:58:00,
2013-01-27 06:03:00,21.7,6.0,29.71,North,353,0.0,0.0,50,0.00,,---,0.00,VWS V13.00,2013-01-27 15:03:00,
2013-01-27 06:08:00,21.7,6.0,29.71,North,353,0.0,0.0,50,0.00,,---,0.00,VWS V13.00,2013-01-27 15:08:00,
2013-01-27 06:13:00,21.7,5.5,29.71,North,353,0.0,0.0,49,0.00,,---,0.00,VWS V13.00,2013-01-27 15:13:00,
2013-01-27 06:18:00,21.7,5.5,29.71,North,353,0.0,0.0,49,0.00,,---,0.00,VWS V13.00,2013-01-27 15:18:00,
2013-01-27 06:23:00,21.7,5.5,29.71,North,353,0.0,0.0,49,0.00,,---,0.00,VWS V13.00,2013-01-27 15:23:00,
2013-01-27 06:28:00,21.7,5.5,29.71,North,353,0.0,0.0,49,0.00,,---,0.00,VWS V13.00,2013-01-27 15:28:00,
2013-01-27 06:33:00,21.9,4.3,29.71,North,353,0.0,0.0,46,0.00,,---,0.00,VWS V13.00,2013-01-27 15:33:00,
2013-01-27 06:38:00,21.9,4.8,29.71,North,353,0.0,0.0,47,0.00,,---,0.00,VWS V13.00,2013-01-27 15:38:00,
2013-01-27 06:43:00,21.9,4.8,29.71,North,353,0.0,0.0,47,0.00,,---,0.00,VWS V13.00,2013-01-27 15:43:00,
2013-01-27 06:48:00,21.9,4.8,29.71,North,353,0.0,0.0,47,0.00,,---,0.00,VWS V13.00,2013-01-27 15:48:00,
2013-01-27 06:53:00,21.9,4.8,29.71,North,353,0.0,0.0,47,0.00,,---,0.00,VWS V13.00,2013-01-27 15:53:00,
2013-01-27 06:58:00,21.9,4.8,29.71,North,353,0.0,0.0,47,0.00,,---,0.00,VWS V13.00,2013-01-27 15:58:00,
2013-01-27 07:03:00,21.9,4.3,29.71,North,353,0.0,0.0,46,0.00,,---,0.00,VWS V13.00,2013-01-27 16:03:00,
2013-01-27 07:08:00,21.9,4.3,29.74,North,353,0.0,0.0,46,0.00,,---,0.00,VWS V13.00,2013-01-27 16:08:00,
2013-01-27 07:13:00,21.9,4.3,29.74,North,353,0.0,0.0,46,0.00,,---,0.00,VWS V13.00,2013-01-27 16:13:00,
2013-01-27 07:18:00,22.1,4.0,29.74,North,353,0.0,0.0,45,0.00,,---,0.00,VWS V13.00,2013-01-27 16:18:00,
2013-01-27 07:23:00,22.1,3.5,29.74,North,353,0.0,0.0,44,0.00,,---,0.00,VWS V13.00,2013-01-27 16:23:00,
2013-01-27 07:28:00,22.1,3.5,29.74,North,353,0.0,0.0,44,0.00,,---,0.00,VWS V13.00,2013-01-27 16:28:00,
2013-01-27 07:33:00,22.1,3.5,29.74,North,353,0.0,0.0,44,0.00,,---,0.00,VWS V13.00,2013-01-27 16:33:00,
2013-01-27 07:38:00,22.1,3.5,29.74,North,353,0.0,0.0,44,0.00,,---,0.00,VWS V13.00,2013-01-27 16:38:00,
2013-01-27 07:43:00,21.9,3.8,29.71,North,353,0.0,0.0,45,0.00,,---,0.00,VWS V13.00,2013-01-27 16:43:00,
2013-01-27 07:48:00,21.9,3.4,29.71,North,353,0.0,0.0,44,0.00,,---,0.00,VWS V13.00,2013-01-27 16:48:00,
2013-01-27 07:53:00,21.9,3.4,29.71,North,353,0.0,0.0,44,0.00,,---,0.00,VWS V13.00,2013-01-27 16:53:00,
2013-01-27 07:58:00,22.1,3.0,29.71,North,353,0.0,0.0,43,0.00,,---,0.00,VWS V13.00,2013-01-27 16:58:00,
2013-01-27 08:03:00,22.1,3.0,29.71,North,353,0.0,0.0,43,0.00,,---,0.00,VWS V13.00,2013-01-27 17:03:00,
2013-01-27 08:08:00,22.1,3.0,29.71,North,353,0.0,0.0,43,0.00,,---,0.00,VWS V13.00,2013-01-27 17:08:00,
2013-01-27 08:13:00,22.1,3.0,29.71,North,353,0.0,0.0,43,0.00,,---,0.00,VWS V13.00,2013-01-27 17:13:00,
2013-01-27 08:18:00,22.1,3.0,29.71,North,353,0.0,0.0,43,0.00,,---,0.00,VWS V13.00,2013-01-27 17:18:00,
2013-01-27 08:23:00,22.1,2.5,29.71,North,353,0.0,0.0,42,0.00,,---,0.00,VWS V13.00,2013-01-27 17:23:00,
2013-01-27 08:28:00,22.1,2.5,29.71,North,353,0.0,0.0,42,0.00,,---,0.00,VWS V13.00,2013-01-27 17:28:00,
2013-01-27 08:33:00,22.1,2.0,29.71,North,353,0.0,0.0,41,0.00,,---,0.00,VWS V13.00,2013-01-27 17:33:00,
2013-01-27 08:38:00,22.1,1.5,29.71,North,353,0.0,0.0,40,0.00,,---,0.00,VWS V13.00,2013-01-27 17:38:00,
2013-01-27 08:43:00,22.1,1.5,29.71,North,353,0.0,0.0,40,0.00,,---,0.00,VWS V13.00,2013-01-27 17:43:00,
2013-01-27 08:48:00,22.1,2.0,29.71,North,353,0.0,0.0,41,0.00,,---,0.00,VWS V13.00,2013-01-27 17:48:00,
2013-01-27 08:53:00,22.1,1.5,29.74,North,353,0.0,0.0,40,0.00,,---,0.00,VWS V13.00,2013-01-27 17:53:00,
2013-01-27 08:58:00,22.1,1.5,29.74,North,353,0.0,0.0,40,0.00,,---,0.00,VWS V13.00,2013-01-27 17:58:00,
2013-01-27 09:03:00,21.9,1.3,29.74,North,353,0.0,0.0,40,0.00,,---,0.00,VWS V13.00,2013-01-27 18:03:00,
2013-01-27 09:08:00,21.9,0.8,29.74,North,353,0.0,0.0,39,0.00,,---,0.00,VWS V13.00,2013-01-27 18:08:00,
2013-01-27 09:13:00,21.9,0.2,29.74,North,353,0.0,0.0,38,0.00,,---,0.00,VWS V13.00,2013-01-27 18:13:00,
2013-01-27 09:18:00,21.9,0.2,29.74,North,353,0.0,0.0,38,0.00,,---,0.00,VWS V13.00,2013-01-27 18:18:00,
2013-01-27 09:23:00,21.9,0.2,29.74,North,353,0.0,0.0,38,0.00,,---,0.00,VWS V13.00,2013-01-27 18:23:00,
2013-01-27 09:28:00,21.9,0.2,29.74,North,353,0.0,0.0,38,0.00,,---,0.00,VWS V13.00,2013-01-27 18:28:00,
2013-01-27 09:33:00,21.9,0.2,29.74,North,353,0.0,0.0,38,0.00,,---,0.00,VWS V13.00,2013-01-27 18:33:00,
2013-01-27 09:38:00,21.9,1.3,29.74,North,353,0.0,0.0,40,0.00,,---,0.00,VWS V13.00,2013-01-27 18:38:00,
2013-01-27 09:43:00,21.9,1.3,29.77,North,353,0.0,0.0,40,0.00,,---,0.00,VWS V13.00,2013-01-27 18:43:00,
2013-01-27 09:48:00,21.9,1.3,29.77,North,353,0.0,0.0,40,0.00,,---,0.00,VWS V13.00,2013-01-27 18:48:00,
2013-01-27 09:53:00,21.9,0.2,29.77,North,353,0.0,0.0,38,0.00,,---,0.00,VWS V13.00,2013-01-27 18:53:00,
2013-01-27 09:58:00,21.9,0.2,29.77,North,353,0.0,0.0,38,0.00,,---,0.00,VWS V13.00,2013-01-27 18:58:00,
2013-01-27 10:03:00,21.9,0.8,29.77,North,353,0.0,0.0,39,0.00,,---,0.00,VWS V13.00,2013-01-27 19:03:00,
2013-01-27 10:08:00,21.9,-0.3,29.77,North,353,0.0,0.0,37,0.00,,---,0.00,VWS V13.00,2013-01-27 19:08:00,
2013-01-27 10:13:00,21.9,-0.3,29.77,North,353,0.0,0.0,37,0.00,,---,0.00,VWS V13.00,2013-01-27 19:13:00,
2013-01-27 10:18:00,22.1,0.4,29.77,North,353,0.0,0.0,38,0.00,,---,0.00,VWS V13.00,2013-01-27 19:18:00,
2013-01-27 10:23:00,22.1,0.4,29.77,North,353,0.0,0.0,38,0.00,,---,0.00,VWS V13.00,2013-01-27 19:23:00,
2013-01-27 10:28:00,22.3,0.5,29.77,North,353,0.0,0.0,38,0.00,,---,0.00,VWS V13.00,2013-01-27 19:28:00,
2013-01-27 10:33:00,22.3,1.1,29.77,North,353,0.0,0.0,39,0.00,,---,0.00,VWS V13.00,2013-01-27 19:33:00,
2013-01-27 10:38:00,22.3,1.1,29.77,North,353,0.0,0.0,39,0.00,,---,0.00,VWS V13.00,2013-01-27 19:38:00,
2013-01-27 10:43:00,22.5,1.3,29.77,North,353,0.0,0.0,39,0.00,,---,0.00,VWS V13.00,2013-01-27 19:43:00,
2013-01-27 10:48:00,22.5,1.3,29.77,North,353,0.0,0.0,39,0.00,,---,0.00,VWS V13.00,2013-01-27 19:48:00,
2013-01-27 10:53:00,22.6,0.9,29.77,North,353,0.0,0.0,38,0.00,,---,0.00,VWS V13.00,2013-01-27 19:53:00,
2013-01-27 10:58:00,22.5,-1.0,29.77,North,353,0.0,0.0,35,0.00,,---,0.00,VWS V13.00,2013-01-27 19:58:00,
2013-01-27 11:02:00,22.5,-1.0,29.77,North,353,0.0,0.0,35,0.00,,---,0.00,VWS V13.00,2013-01-27 20:02:00,
2013-01-27 11:07:00,22.5,-1.0,29.77,North,353,0.0,0.0,35,0.00,,---,0.00,VWS V13.00,2013-01-27 20:07:00,
2013-01-27 11:12:00,22.6,-1.5,29.77,North,353,0.0,0.0,34,0.00,,---,0.00,VWS V13.00,2013-01-27 20:12:00,
2013-01-27 11:17:00,22.6,-0.9,29.77,North,353,0.0,0.0,35,0.00,,---,0.00,VWS V13.00,2013-01-27 20:17:00,
2013-01-27 11:22:00,22.8,-0.7,29.77,North,353,0.0,0.0,35,0.00,,---,0.00,VWS V13.00,2013-01-27 20:22:00,
2013-01-27 11:27:00,22.8,-1.3,29.77,North,353,0.0,0.0,34,0.00,,---,0.00,VWS V13.00,2013-01-27 20:27:00,
2013-01-27 11:32:00,22.8,-0.7,29.77,North,353,0.0,0.0,35,0.00,,---,0.00,VWS V13.00,2013-01-27 20:32:00,
2013-01-27 11:37:00,22.8,-1.3,29.77,North,353,0.0,0.0,34,0.00,,---,0.00,VWS V13.00,2013-01-27 20:37:00,
2013-01-27 11:42:00,23.0,-1.2,29.74,North,353,0.0,0.0,34,0.00,,---,0.00,VWS V13.00,2013-01-27 20:42:00,
2013-01-27 11:47:00,22.8,-2.0,29.74,North,353,0.0,0.0,33,0.00,,---,0.00,VWS V13.00,2013-01-27 20:47:00,
2013-01-27 11:52:00,22.8,-1.3,29.74,North,353,0.0,0.0,34,0.00,,---,0.00,VWS V13.00,2013-01-27 20:52:00,
2013-01-27 11:57:00,22.8,-2.0,29.74,North,353,0.0,0.0,33,0.00,,---,0.00,VWS V13.00,2013-01-27 20:57:00,
2013-01-27 12:02:00,22.8,-0.7,29.74,North,353,0.0,0.0,35,0.00,,---,0.00,VWS V13.00,2013-01-27 21:02:00,
2013-01-27 12:07:00,22.8,-0.7,29.77,North,353,0.0,0.0,35,0.00,,---,0.00,VWS V13.00,2013-01-27 21:07:00,
2013-01-27 12:12:00,22.8,-0.7,29.77,North,353,0.0,0.0,35,0.00,,---,0.00,VWS V13.00,2013-01-27 21:12:00,
2013-01-27 12:17:00,23.0,0.0,29.77,North,353,0.0,0.0,36,0.00,,---,0.00,VWS V13.00,2013-01-27 21:17:00,
2013-01-27 12:22:00,23.2,-0.4,29.77,North,353,0.0,0.0,35,0.00,,---,0.00,VWS V13.00,2013-01-27 21:22:00,
2013-01-27 12:27:00,23.2,-0.4,29.77,North,353,0.0,0.0,35,0.00,,---,0.00,VWS V13.00,2013-01-27 21:27:00,
2013-01-27 12:32:00,22.8,-0.7,29.77,North,353,0.0,0.0,35,0.00,,---,0.00,VWS V13.00,2013-01-27 21:32:00,
2013-01-27 12:37:00,23.2,-1.0,29.77,North,353,0.0,0.0,34,0.00,,---,0.00,VWS V13.00,2013-01-27 21:37:00,
2013-01-27 12:42:00,23.2,-1.0,29.77,North,353,0.0,0.0,34,0.00,,---,0.00,VWS V13.00,2013-01-27 21:42:00,
2013-01-27 12:47:00,23.4,-0.2,29.77,North,353,0.0,0.0,35,0.00,,---,0.00,VWS V13.00,2013-01-27 21:47:00,
2013-01-27 12:52:00,23.5,-0.1,29.77,North,353,0.0,0.0,35,0.00,,---,0.00,VWS V13.00,2013-01-27 21:52:00,
2013-01-27 12:57:00,23.5,-0.1,29.77,North,353,0.0,0.0,35,0.00,,---,0.00,VWS V13.00,2013-01-27 21:57:00,
2013-01-27 13:02:00,23.7,0.1,29.77,North,353,0.0,0.0,35,0.00,,---,0.00,VWS V13.00,2013-01-27 22:02:00,
2013-01-27 13:07:00,23.7,0.1,29.77,North,353,0.0,0.0,35,0.00,,---,0.00,VWS V13.00,2013-01-27 22:07:00,
2013-01-27 13:12:00,23.9,0.2,29.77,North,353,0.0,0.0,35,0.00,,---,0.00,VWS V13.00,2013-01-27 22:12:00,
2013-01-27 13:17:00,23.9,0.2,29.77,North,353,0.0,0.0,35,0.00,,---,0.00,VWS V13.00,2013-01-27 22:17:00,
2013-01-27 13:22:00,23.7,-0.5,29.77,North,353,0.0,0.0,34,0.00,,---,0.00,VWS V13.00,2013-01-27 22:22:00,
2013-01-27 13:27:00,23.7,-1.2,29.77,North,353,0.0,0.0,33,0.00,,---,0.00,VWS V13.00,2013-01-27 22:27:00,
2013-01-27 13:32:00,23.5,-0.7,29.77,North,353,0.0,0.0,34,0.00,,---,0.00,VWS V13.00,2013-01-27 22:32:00,
2013-01-27 13:37:00,23.5,-0.7,29.77,North,353,0.0,0.0,34,0.00,,---,0.00,VWS V13.00,2013-01-27 22:37:00,
2013-01-27 13:42:00,23.5,-0.1,29.77,North,353,0.0,0.0,35,0.00,,---,0.00,VWS V13.00,2013-01-27 22:42:00,
2013-01-27 13:47:00,23.7,-0.5,29.77,North,353,0.0,0.0,34,0.00,,---,0.00,VWS V13.00,2013-01-27 22:47:00,
2013-01-27 13:52:00,23.7,-0.5,29.77,North,353,0.0,0.0,34,0.00,,---,0.00,VWS V13.00,2013-01-27 22:52:00,
2013-01-27 13:57:00,23.7,-0.5,29.77,North,353,0.0,0.0,34,0.00,,---,0.00,VWS V13.00,2013-01-27 22:57:00,
2013-01-27 14:02:00,23.7,-0.5,29.77,North,353,0.0,0.0,34,0.00,,---,0.00,VWS V13.00,2013-01-27 23:02:00,
2013-01-27 14:07:00,24.1,0.4,29.77,North,353,0.0,0.0,35,0.00,,---,0.00,VWS V13.00,2013-01-27 23:07:00,
2013-01-27 14:12:00,24.3,-0.7,29.77,North,353,0.0,0.0,33,0.00,,---,0.00,VWS V13.00,2013-01-27 23:12:00,
2013-01-27 14:17:00,24.4,0.7,29.77,North,353,0.0,0.0,35,0.00,,---,0.00,VWS V13.00,2013-01-27 23:17:00,
2013-01-27 14:22:00,23.7,-1.2,29.77,North,353,0.0,0.0,33,0.00,,---,0.00,VWS V13.00,2013-01-27 23:22:00,
2013-01-27 14:27:00,23.5,-1.3,29.77,North,353,0.0,0.0,33,0.00,,---,0.00,VWS V13.00,2013-01-27 23:27:00,
2013-01-27 14:32:00,23.7,0.1,29.77,North,353,0.0,0.0,35,0.00,,---,0.00,VWS V13.00,2013-01-27 23:32:00,
2013-01-27 14:37:00,24.3,0.6,29.77,North,353,0.0,0.0,35,0.00,,---,0.00,VWS V13.00,2013-01-27 23:37:00,
2013-01-27 14:42:00,23.9,-0.4,29.77,North,353,0.0,0.0,34,0.00,,---,0.00,VWS V13.00,2013-01-27 23:42:00,
2013-01-27 14:47:00,23.9,-0.4,29.77,North,353,0.0,0.0,34,0.00,,---,0.00,VWS V13.00,2013-01-27 23:47:00,
2013-01-27 14:52:00,23.5,1.1,29.77,North,353,0.0,0.0,37,0.00,,---,0.00,VWS V13.00,2013-01-27 23:52:00,
2013-01-27 14:57:00,23.2,3.0,29.77,North,353,0.0,0.0,41,0.00,,---,0.00,VWS V13.00,2013-01-27 23:57:00,
2013-01-27 15:02:00,23.2,3.0,29.77,North,353,0.0,0.0,41,0.00,,---,0.00,VWS V13.00,2013-01-28 00:02:00,
2013-01-27 15:07:00,22.1,3.0,29.77,North,353,0.0,0.0,43,0.00,,---,0.00,VWS V13.00,2013-01-28 00:07:00,
2013-01-27 15:12:00,22.1,3.0,29.77,North,353,0.0,0.0,43,0.00,,---,0.00,VWS V13.00,2013-01-28 00:12:00,
2013-01-27 15:17:00,22.5,3.4,29.77,North,353,0.0,0.0,43,0.00,,---,0.00,VWS V13.00,2013-01-28 00:17:00,
2013-01-27 15:22:00,22.5,3.4,29.77,North,353,0.0,0.0,43,0.00,,---,0.00,VWS V13.00,2013-01-28 00:22:00,
2013-01-27 15:27:00,22.5,3.4,29.77,North,353,0.0,0.0,43,0.00,,---,0.00,VWS V13.00,2013-01-28 00:27:00,
2013-01-27 15:32:00,22.8,4.2,29.77,North,353,0.0,0.0,44,0.00,,---,0.00,VWS V13.00,2013-01-28 00:32:00,
2013-01-27 15:37:00,22.6,4.0,29.77,North,353,0.0,0.0,44,0.00,,---,0.00,VWS V13.00,2013-01-28 00:37:00,
2013-01-27 15:42:00,22.3,3.7,29.77,North,353,0.0,0.0,44,0.00,,---,0.00,VWS V13.00,2013-01-28 00:42:00,
2013-01-27 15:47:00,22.3,3.7,29.77,North,353,0.0,0.0,44,0.00,,---,0.00,VWS V13.00,2013-01-28 00:47:00,
2013-01-27 15:52:00,22.3,3.7,29.77,North,353,0.0,0.0,44,0.00,,---,0.00,VWS V13.00,2013-01-28 00:52:00,
2013-01-27 15:57:00,21.6,3.5,29.77,North,350,0.0,0.0,45,0.00,,---,0.00,VWS V13.00,2013-01-28 00:57:00,
2013-01-27 16:02:00,22.3,4.2,29.77,West,267,0.0,0.0,45,0.00,,---,0.00,VWS V13.00,2013-01-28 01:02:00,
2013-01-27 16:07:00,22.6,4.5,29.77,South,177,0.0,0.0,45,0.00,,---,0.00,VWS V13.00,2013-01-28 01:07:00,
2013-01-27 16:12:00,22.8,4.7,29.77,North,0,0.0,0.0,45,0.00,,---,0.00,VWS V13.00,2013-01-28 01:12:00,
2013-01-27 16:17:00,22.8,4.7,29.77,North,0,0.0,0.0,45,0.00,,---,0.00,VWS V13.00,2013-01-28 01:17:00,
2013-01-27 16:22:00,22.8,4.7,29.77,North,0,0.0,0.0,45,0.00,,---,0.00,VWS V13.00,2013-01-28 01:22:00,
2013-01-27 16:27:00,20.8,3.3,29.77,North,0,0.0,0.0,46,0.00,,---,0.00,VWS V13.00,2013-01-28 01:27:00,
2013-01-27 16:32:00,20.7,3.2,29.77,North,0,0.0,0.0,46,0.00,,---,0.00,VWS V13.00,2013-01-28 01:32:00,
2013-01-27 16:37:00,20.7,3.2,29.80,North,0,0.0,0.0,46,0.00,,---,0.00,VWS V13.00,2013-01-28 01:37:00,
2013-01-27 16:42:00,20.7,3.2,29.80,North,0,0.0,0.0,46,0.00,,---,0.00,VWS V13.00,2013-01-28 01:42:00,
2013-01-27 16:47:00,20.7,3.2,29.80,North,0,0.0,0.0,46,0.00,,---,0.00,VWS V13.00,2013-01-28 01:47:00,
2013-01-27 16:52:00,19.9,2.5,29.80,North,0,0.0,0.0,46,0.00,,---,0.00,VWS V13.00,2013-01-28 01:52:00,
2013-01-27 16:57:00,19.9,2.5,29.80,North,0,0.0,0.0,46,0.00,,---,0.00,VWS V13.00,2013-01-28 01:57:00,
2013-01-27 17:02:00,19.9,2.5,29.80,North,0,0.0,0.0,46,0.00,,---,0.00,VWS V13.00,2013-01-28 02:02:00,
2013-01-27 17:07:00,19.9,2.5,29.80,North,0,0.0,0.0,46,0.00,,---,0.00,VWS V13.00,2013-01-28 02:07:00,
2013-01-27 17:12:00,19.6,2.2,29.80,North,0,0.0,0.0,46,0.00,,---,0.00,VWS V13.00,2013-01-28 02:12:00,
2013-01-27 17:17:00,19.6,2.6,29.80,North,0,0.0,0.0,47,0.00,,---,0.00,VWS V13.00,2013-01-28 02:17:00,
2013-01-27 17:22:00,19.6,2.6,29.80,North,0,0.0,0.0,47,0.00,,---,0.00,VWS V13.00,2013-01-28 02:22:00,
2013-01-27 17:27:00,19.9,3.0,29.80,North,0,0.0,0.0,47,0.00,,---,0.00,VWS V13.00,2013-01-28 02:27:00,
2013-01-27 17:32:00,19.9,3.0,29.80,North,0,0.0,0.0,47,0.00,,---,0.00,VWS V13.00,2013-01-28 02:32:00,
2013-01-27 17:37:00,19.6,2.2,29.80,North,0,0.0,0.0,46,0.00,,---,0.00,VWS V13.00,2013-01-28 02:37:00,
2013-01-27 17:42:00,19.4,2.0,29.80,North,0,0.0,0.0,46,0.00,,---,0.00,VWS V13.00,2013-01-28 02:42:00,
2013-01-27 17:47:00,19.4,2.0,29.80,North,0,0.0,0.0,46,0.00,,---,0.00,VWS V13.00,2013-01-28 02:47:00,
2013-01-27 17:52:00,18.7,0.9,29.80,North,0,0.0,0.0,45,0.00,,---,0.00,VWS V13.00,2013-01-28 02:52:00,
2013-01-27 17:57:00,18.7,0.9,29.80,North,0,0.0,0.0,45,0.00,,---,0.00,VWS V13.00,2013-01-28 02:57:00,
2013-01-27 18:02:00,18.5,0.7,29.80,North,0,0.0,0.0,45,0.00,,---,0.00,VWS V13.00,2013-01-28 03:02:00,
2013-01-27 18:07:00,18.3,0.6,29.80,North,0,0.0,0.0,45,0.00,,---,0.00,VWS V13.00,2013-01-28 03:07:00,
2013-01-27 18:12:00,18.3,0.6,29.80,North,0,0.0,0.0,45,0.00,,---,0.00,VWS V13.00,2013-01-28 03:12:00,
2013-01-27 18:17:00,18.0,0.2,29.80,North,0,0.0,0.0,45,0.00,,---,0.00,VWS V13.00,2013-01-28 03:17:00,
2013-01-27 18:22:00,17.8,0.1,29.80,North,0,0.0,0.0,45,0.00,,---,0.00,VWS V13.00,2013-01-28 03:22:00,
2013-01-27 18:27:00,17.8,-0.4,29.80,North,0,0.0,0.0,44,0.00,,---,0.00,VWS V13.00,2013-01-28 03:27:00,
2013-01-27 18:32:00,17.8,-0.4,29.80,North,0,0.0,0.0,44,0.00,,---,0.00,VWS V13.00,2013-01-28 03:32:00,
2013-01-27 18:37:00,17.8,-0.4,29.80,North,0,0.0,0.0,44,0.00,,---,0.00,VWS V13.00,2013-01-28 03:37:00,
2013-01-27 18:42:00,17.8,-0.4,29.80,North,0,0.0,0.0,44,0.00,,---,0.00,VWS V13.00,2013-01-28 03:42:00,
2013-01-27 18:47:00,17.1,-0.6,29.80,North,0,0.0,0.0,45,0.00,,---,0.00,VWS V13.00,2013-01-28 03:47:00,
2013-01-27 18:52:00,16.9,-0.8,29.80,North,0,0.0,0.0,45,0.00,,---,0.00,VWS V13.00,2013-01-28 03:52:00,
2013-01-27 18:57:00,16.9,-0.8,29.80,North,0,0.0,0.0,45,0.00,,---,0.00,VWS V13.00,2013-01-28 03:57:00,
2013-01-27 19:02:00,16.9,-0.8,29.80,North,0,0.0,0.0,45,0.00,,---,0.00,VWS V13.00,2013-01-28 04:02:00,
2013-01-27 19:07:00,16.9,-0.8,29.80,North,0,0.0,0.0,45,0.00,,---,0.00,VWS V13.00,2013-01-28 04:07:00,
2013-01-27 19:12:00,16.5,-1.1,29.80,North,0,0.0,0.0,45,0.00,,---,0.00,VWS V13.00,2013-01-28 04:12:00,
2013-01-27 19:17:00,16.5,-1.1,29.80,North,0,0.0,0.0,45,0.00,,---,0.00,VWS V13.00,2013-01-28 04:17:00,
2013-01-27 19:22:00,16.2,-1.4,29.80,North,0,0.0,0.0,45,0.00,,---,0.00,VWS V13.00,2013-01-28 04:22:00,
2013-01-27 19:27:00,16.2,-1.4,29.80,North,0,0.0,0.0,45,0.00,,---,0.00,VWS V13.00,2013-01-28 04:27:00,
2013-01-27 19:32:00,16.2,-1.4,29.80,North,0,0.0,0.0,45,0.00,,---,0.00,VWS V13.00,2013-01-28 04:32:00,
2013-01-27 19:37:00,16.2,-1.0,29.80,North,0,0.0,0.0,46,0.00,,---,0.00,VWS V13.00,2013-01-28 04:37:00,
2013-01-27 19:42:00,16.2,-1.0,29.80,North,0,0.0,0.0,46,0.00,,---,0.00,VWS V13.00,2013-01-28 04:42:00,
2013-01-27 19:47:00,16.2,-1.0,29.80,North,0,0.0,0.0,46,0.00,,---,0.00,VWS V13.00,2013-01-28 04:47:00,
2013-01-27 19:52:00,16.2,-1.0,29.80,North,0,0.0,0.0,46,0.00,,---,0.00,VWS V13.00,2013-01-28 04:52:00,
2013-01-27 19:57:00,16.2,-0.5,29.80,North,0,0.0,0.0,47,0.00,,---,0.00,VWS V13.00,2013-01-28 04:57:00,
2013-01-27 20:00:00,16.2,-0.5,29.80,North,0,0.0,0.0,47,0.00,,---,0.00,VWS V13.00,2013-01-28 05:00:00,
2013-01-27 20:03:00,16.0,-0.7,29.80,North,0,0.0,0.0,47,0.00,,---,0.00,VWS V13.00,2013-01-28 05:03:00,
2013-01-27 20:08:00,16.0,-0.7,29.80,North,0,0.0,0.0,47,0.00,,---,0.00,VWS V13.00,2013-01-28 05:08:00,
2013-01-27 20:13:00,15.6,-1.0,29.80,North,0,0.0,0.0,47,0.00,,---,0.00,VWS V13.00,2013-01-28 05:13:00,
2013-01-27 20:18:00,15.6,-1.0,29.80,North,0,0.0,0.0,47,0.00,,---,0.00,VWS V13.00,2013-01-28 05:18:00,
2013-01-27 20:23:00,15.6,-1.0,29.80,North,0,0.0,0.0,47,0.00,,---,0.00,VWS V13.00,2013-01-28 05:23:00,
2013-01-27 20:28:00,15.4,-1.2,29.80,North,0,0.0,0.0,47,0.00,,---,0.00,VWS V13.00,2013-01-28 05:28:00,
2013-01-27 20:33:00,15.4,-1.2,29.80,North,0,0.0,0.0,47,0.00,,---,0.00,VWS V13.00,2013-01-28 05:33:00,
2013-01-27 20:38:00,15.3,-1.3,29.80,North,0,0.0,0.0,47,0.00,,---,0.00,VWS V13.00,2013-01-28 05:38:00,
2013-01-27 20:43:00,15.3,-1.3,29.80,North,0,0.0,0.0,47,0.00,,---,0.00,VWS V13.00,2013-01-28 05:43:00,
2013-01-27 20:48:00,15.3,-1.3,29.80,North,0,0.0,0.0,47,0.00,,---,0.00,VWS V13.00,2013-01-28 05:48:00,
2013-01-27 20:53:00,15.3,-1.3,29.80,North,0,0.0,0.0,47,0.00,,---,0.00,VWS V13.00,2013-01-28 05:53:00,
2013-01-27 20:58:00,15.3,-1.3,29.80,North,0,0.0,0.0,47,0.00,,---,0.00,VWS V13.00,2013-01-28 05:58:00,
2013-01-27 21:03:00,15.4,-0.7,29.80,North,0,0.0,0.0,48,0.00,,---,0.00,VWS V13.00,2013-01-28 06:03:00,
2013-01-27 21:08:00,15.6,-0.6,29.83,North,0,0.0,0.0,48,0.00,,---,0.00,VWS V13.00,2013-01-28 06:08:00,
2013-01-27 21:13:00,15.4,-0.7,29.83,North,0,0.0,0.0,48,0.00,,---,0.00,VWS V13.00,2013-01-28 06:13:00,
2013-01-27 21:18:00,15.4,-0.7,29.83,North,0,0.0,0.0,48,0.00,,---,0.00,VWS V13.00,2013-01-28 06:18:00,
2013-01-27 21:23:00,15.4,-0.7,29.83,North,0,0.0,0.0,48,0.00,,---,0.00,VWS V13.00,2013-01-28 06:23:00,
2013-01-27 21:28:00,15.4,-0.7,29.83,North,0,0.0,0.0,48,0.00,,---,0.00,VWS V13.00,2013-01-28 06:28:00,
2013-01-27 21:33:00,15.3,-0.9,29.83,North,0,0.0,0.0,48,0.00,,---,0.00,VWS V13.00,2013-01-28 06:33:00,
2013-01-27 21:38:00,15.1,-1.1,29.83,North,0,0.0,0.0,48,0.00,,---,0.00,VWS V13.00,2013-01-28 06:38:00,
2013-01-27 21:43:00,15.1,-1.1,29.83,North,0,0.0,0.0,48,0.00,,---,0.00,VWS V13.00,2013-01-28 06:43:00,
2013-01-27 21:48:00,15.1,-1.1,29.83,North,0,0.0,0.0,48,0.00,,---,0.00,VWS V13.00,2013-01-28 06:48:00,
2013-01-27 21:53:00,15.1,-1.1,29.83,North,0,0.0,0.0,48,0.00,,---,0.00,VWS V13.00,2013-01-28 06:53:00,
2013-01-27 21:58:00,15.3,-0.9,29.83,North,0,0.0,0.0,48,0.00,,---,0.00,VWS V13.00,2013-01-28 06:58:00,
2013-01-27 22:03:00,15.3,-0.9,29.83,North,0,0.0,0.0,48,0.00,,---,0.00,VWS V13.00,2013-01-28 07:03:00,
2013-01-27 22:08:00,15.3,-0.9,29.83,North,0,0.0,0.0,48,0.00,,---,0.00,VWS V13.00,2013-01-28 07:08:00,
2013-01-27 22:13:00,15.3,-0.9,29.83,North,0,0.0,0.0,48,0.00,,---,0.00,VWS V13.00,2013-01-28 07:13:00,
2013-01-27 22:18:00,15.3,-0.9,29.83,North,0,0.0,0.0,48,0.00,,---,0.00,VWS V13.00,2013-01-28 07:18:00,
2013-01-27 22:23:00,15.3,-0.9,29.83,North,0,0.0,0.0,48,0.00,,---,0.00,VWS V13.00,2013-01-28 07:23:00,
2013-01-27 22:28:00,15.3,-0.9,29.83,North,0,0.0,0.0,48,0.00,,---,0.00,VWS V13.00,2013-01-28 07:28:00,
2013-01-27 22:33:00,15.3,-0.9,29.83,North,0,0.0,0.0,48,0.00,,---,0.00,VWS V13.00,2013-01-28 07:33:00,
2013-01-27 22:38:00,15.3,-0.9,29.83,North,0,0.0,0.0,48,0.00,,---,0.00,VWS V13.00,2013-01-28 07:38:00,
2013-01-27 22:43:00,15.3,-0.9,29.83,North,0,0.0,0.0,48,0.00,,---,0.00,VWS V13.00,2013-01-28 07:43:00,
2013-01-27 22:48:00,15.3,-0.9,29.83,North,0,0.0,0.0,48,0.00,,---,0.00,VWS V13.00,2013-01-28 07:48:00,
2013-01-27 22:53:00,15.3,-0.9,29.83,North,0,0.0,0.0,48,0.00,,---,0.00,VWS V13.00,2013-01-28 07:53:00,
2013-01-27 22:58:00,15.3,-0.9,29.83,North,0,0.0,0.0,48,0.00,,---,0.00,VWS V13.00,2013-01-28 07:58:00,
2013-01-27 23:03:00,15.3,-0.9,29.83,North,0,0.0,0.0,48,0.00,,---,0.00,VWS V13.00,2013-01-28 08:03:00,
2013-01-27 23:08:00,15.3,-0.9,29.83,North,0,0.0,0.0,48,0.00,,---,0.00,VWS V13.00,2013-01-28 08:08:00,
2013-01-27 23:13:00,15.1,-1.5,29.83,North,357,0.0,0.0,47,0.00,,---,0.00,VWS V13.00,2013-01-28 08:13:00,
2013-01-27 23:18:00,15.1,-1.5,29.83,North,357,0.0,0.0,47,0.00,,---,0.00,VWS V13.00,2013-01-28 08:18:00,
2013-01-27 23:23:00,15.1,-1.5,29.83,North,357,0.0,0.0,47,0.00,,---,0.00,VWS V13.00,2013-01-28 08:23:00,
2013-01-27 23:28:00,15.1,-1.5,29.83,North,357,0.0,0.0,47,0.00,,---,0.00,VWS V13.00,2013-01-28 08:28:00,
2013-01-27 23:33:00,15.1,-1.5,29.83,North,357,0.0,0.0,47,0.00,,---,0.00,VWS V13.00,2013-01-28 08:33:00,
2013-01-27 23:38:00,15.1,-1.5,29.83,North,357,0.0,0.0,47,0.00,,---,0.00,VWS V13.00,2013-01-28 08:38:00,
2013-01-27 23:43:00,15.1,-1.5,29.83,North,357,0.0,0.0,47,0.00,,---,0.00,VWS V13.00,2013-01-28 08:43:00,
2013-01-27 23:48:00,15.1,-1.5,29.83,North,357,0.0,0.0,47,0.00,,---,0.00,VWS V13.00,2013-01-28 08:48:00,
2013-01-27 23:53:00,15.1,-1.5,29.80,North,357,0.0,0.0,47,0.00,,---,0.00,VWS V13.00,2013-01-28 08:53:00,
2013-01-27 23:58:00,15.1,-1.5,29.80,North,357,0.0,0.0,47,0.00,,---,0.00,VWS V13.00,2013-01-28 08:58:00,